Location: ????????
(38.4362°N, 22.8767°E)
Time: 15:09:40
(UTC+00:00)

ADEOS II - Pass Details

Date: 23 April 2024
Orbit: 796 x 799 km, 98.7° (Epoch: 18 May)

Event Time Altitude Azimuth Distance (km) Brightness Sun altitude
Rises 00:00:08 0° 24° (NNE) 3,308 6.3 -34.5°
Reaches altitude 10° 00:02:43 10° 34° (NE) 2,373 5.3 -34.2°
Enters shadow 00:06:28 30° 77° (ENE) 1,389 3.6 -33.9°
